Regional Weather Roundup
Issued by NWS Newport/Morehead, NC

Home | Current Version | Previous Version | Text Only | Print | Product List | Glossary On
Versions: 1 2 3 4 5 6 7 8 9 10 11 12 13 14 15 16 17 18 19 20 21 22 23 24 25 26 27 28 29 30 31 32 33 34 35 36 37 38 39 40 41 42 43 44 45 46 47 48 49 50
000
ASUS42 KMHX 270925
RWRMHX
WEATHER ROUNDUP FOR EASTERN NORTH CAROLINA
NATIONAL WEATHER SERVICE NEWPORT/MOREHEAD CITY NC
500 AM EDT FRI APR 27 2018

NOTE: "FAIR" INDICATES FEW OR NO CLOUDS BELOW 12,000 FEET
WITH NO SIGNIFICANT WEATHER AND/OR OBSTRUCTIONS TO VISIBILITY

NCZ015>017-031-032-045>047-102-103-271000-
NORTH COAST

CITY           SKY/WX    TMP DP  RH WIND       PRES   REMARKS
EDENTON        FAIR      64  61  89 W3        29.78F
ELIZABETH CITY FAIR      63  62  97 W8        29.77F
KITTY HAWK     CLOUDY    62  61  96 CALM      29.76S
MANTEO         LGT RAIN  64  62  93 S6        29.77F

$$

NCZ045>047-081-094-103-104-271000-
CENTRAL COAST

CITY           SKY/WX    TMP DP  RH WIND       PRES   REMARKS
FRISCO         FAIR      67  66  97 SW9       29.77F

$$

NCZ095-097-098-100-101-271000-
SOUTHERN COAST

CITY           SKY/WX    TMP DP  RH WIND       PRES   REMARKS
BEAUFORT       CLOUDY    64  61  90 CALM      29.78F
CEDAR ISLAND   NOT AVBL
JACKSONVILLE   MOCLDY    60  58  92 CALM      29.78F
PINEY ISLAND   NOT AVBL
WILMINGTON     CLOUDY    61  57  87 CALM      29.79S


$$

NCZ011>013-027>030-043-044-078>080-089-090>093-098-271000-
COASTAL PLAIN

CITY           SKY/WX    TMP DP  RH WIND       PRES   REMARKS
AHOSKIE        CLOUDY    58  58 100 CALM      29.79R
CLINTON        FAIR      60  60  98 CALM      29.80S
ELIZABETHTOWN  LGT RAIN  60  59  97 MISG      29.79R
GOLDSBORO      LGT RAIN  61  58  90 S3        29.78R
GREENVILLE     MOCLDY    63  59  88 CALM      29.81S
HAVELOCK       NOT AVBL
KENANSVILLE    CLOUDY    59  57  94 CALM      29.79R
KINSTON        MOCLDY    60  58  94 CALM      29.80R
NEW BERN       CLOUDY    58  58 100 CALM      29.80R
RICHLANDS      CLOUDY    58  58 100 CALM      29.79S
ROCKY MOUNT    RAIN      60  58  92 CALM      29.79R FOG
WASHINGTON     MOCLDY    60  57  89 CALM      29.78S
WHITEVILLE     HVY RAIN  61  60  96 W6        29.80R

$$

AMZ130-135-150-152-154-156-158-170-250-252-270-ANZ085-086-088-633-658-670-271000-
MARINE OBSERVATIONS

STATION/POSITION TIME  TEMP    WIND        PRES    WAVE   SWELL
                       AIR SEA DIR/SP/G            HT/PER HT/PER
                 (UTC) (F)     (DEG/KT/KT) (MB)    (FT/S) (FT/S)
CHESAPEAKE LIGHT NOT AVBL
64 E VA BEACH    0850   58 52  170/ 10/ 12 1008.7    5/ 9   5/ 9
DUCK             0900   58 53  150/ 10/ 10 1007.4
2 E DUCK         0830      55                N/A     3/ 8   2/11
OREGON INLET     0900   65 61  170/  7/  9 1007.8
13E OREGON INLT  0848      56                N/A     4/ 9   3/ 9
HATTERAS CG      0900   66 69  230/  7/ 10 1007.8
DIAMOND BUOY     0910   71 70  190/ 23/ 29 1008.2
CAPE LOOKOUT     0900          260/  6/  6 1008.9
BEAUFORT LAB     0900   65 66   CALM  /  3 1008.6
30 SE NEW RVR IN 0908   67 67  280/  4/  8 1006.5
30 SE NEW RVR IN 0900      67                N/A     5/ 9   2/11
27 SE WRIGHTSVLE 0908   65 65  210/  2/  6 1008.4
5 SE WRIGHTSVLE  0908   66     240/  4/  8 1008.3
225 S CAPE HAT   0910   73 73  170/ 16/ 19 1010.9
41 SE CHARLESTON 0910      70  240/ 14/ 17 1008.2

$$




USA.gov is the U.S. government's official web portal to all federal, state and local government web resources and services.